Wetterdaten: aktuell Donnerstag, 08.06.2023 17:40
Datum Zeit Temperatur Temp. 5 cm Luftfeuchte Luftdruck Regen Wind Richtung Richtung Sonnenschein ET UV Solar Taupunkt Windchill Windben
08.06.2023 17:40 23,1 C 25,0 C 62 % 1012,5 hPa 0,0 l/m 6,0 km/h (2 Bft) O-NO 58 1 min 0,000 mm 1,8 UV-I 429 W/m 15,4 C 23,1 C 8,0 km/h (2 Bft)
08.06.2023 17:39 23,1 C 25,0 C 62 % 1012,5 hPa 0,0 l/m 3,6 km/h (1 Bft) NO 55 1 min 0,000 mm 1,9 UV-I 443 W/m 15,4 C 23,1 C 6,4 km/h (2 Bft)
08.06.2023 17:38 23,1 C 25,0 C 62 % 1012,5 hPa 0,0 l/m 5,3 km/h (1 Bft) N-NO 18 1 min 0,000 mm 1,9 UV-I 455 W/m 15,4 C 23,1 C 9,7 km/h (2 Bft)
08.06.2023 17:37 23,1 C 25,0 C 61 % 1012,5 hPa 0,0 l/m 5,9 km/h (2 Bft) NO 39 1 min 0,000 mm 1,9 UV-I 462 W/m 15,2 C 23,1 C 8,0 km/h (2 Bft)
08.06.2023 17:36 23,1 C 25,0 C 61 % 1012,5 hPa 0,0 l/m 8,8 km/h (2 Bft) N-NO 28 1 min 0,000 mm 2,0 UV-I 466 W/m 15,2 C 23,1 C 11,3 km/h (2 Bft)
08.06.2023 17:35 23,1 C 25,0 C 64 % 1012,5 hPa 0,0 l/m 8,4 km/h (2 Bft) NO 36 1 min 0,000 mm 2,0 UV-I 459 W/m 15,9 C 23,1 C 12,9 km/h (3 Bft)
08.06.2023 17:34 23,1 C 25,0 C 65 % 1012,5 hPa 0,0 l/m 5,4 km/h (2 Bft) NO 36 1 min 0,000 mm 1,9 UV-I 448 W/m 16,2 C 23,1 C 9,7 km/h (2 Bft)
08.06.2023 17:33 23,0 C 25,0 C 64 % 1012,6 hPa 0,0 l/m 5,1 km/h (1 Bft) NO 52 1 min 0,000 mm 2,0 UV-I 454 W/m 15,8 C 23,0 C 8,0 km/h (2 Bft)
08.06.2023 17:32 22,9 C 25,0 C 65 % 1012,6 hPa 0,0 l/m 6,3 km/h (2 Bft) O-NO 57 1 min 0,000 mm 2,0 UV-I 480 W/m 16,0 C 22,9 C 9,7 km/h (2 Bft)
08.06.2023 17:31 22,9 C 25,0 C 64 % 1012,5 hPa 0,0 l/m 4,3 km/h (1 Bft) O-NO 65 1 min 0,000 mm 2,1 UV-I 445 W/m 15,7 C 22,9 C 6,4 km/h (2 Bft)
08.06.2023 17:30 22,9 C 25,0 C 63 % 1012,6 hPa 0,0 l/m 5,4 km/h (2 Bft) N-NO 30 1 min 0,000 mm 2,1 UV-I 497 W/m 15,5 C 22,9 C 8,0 km/h (2 Bft)
08.06.2023 17:29 22,9 C 25,0 C 63 % 1012,6 hPa 0,0 l/m 6,1 km/h (2 Bft) NO 36 1 min 0,000 mm 2,1 UV-I 497 W/m 15,5 C 22,9 C 8,0 km/h (2 Bft)
08.06.2023 17:28 22,9 C 25,0 C 64 % 1012,6 hPa 0,0 l/m 6,0 km/h (2 Bft) N-NO 23 1 min 0,000 mm 2,1 UV-I 496 W/m 15,7 C 22,9 C 8,0 km/h (2 Bft)
08.06.2023 17:27 22,9 C 25,0 C 64 % 1012,6 hPa 0,0 l/m 4,8 km/h (1 Bft) N-NO 24 1 min 0,000 mm 2,1 UV-I 497 W/m 15,7 C 22,9 C 8,0 km/h (2 Bft)
08.06.2023 17:26 22,9 C 24,4 C 63 % 1012,6 hPa 0,0 l/m 4,8 km/h (1 Bft) N-NO 32 1 min 0,000 mm 2,0 UV-I 461 W/m 15,5 C 22,9 C 6,4 km/h (2 Bft)
08.06.2023 17:25 22,9 C 24,4 C 64 % 1012,6 hPa 0,0 l/m 4,4 km/h (1 Bft) N-NW 337 1 min 0,000 mm 2,1 UV-I 468 W/m 15,7 C 22,9 C 6,4 km/h (2 Bft)
08.06.2023 17:24 22,8 C 24,4 C 63 % 1012,6 hPa 0,0 l/m 4,0 km/h (1 Bft) N-NO 29 1 min 0,000 mm 2,1 UV-I 469 W/m 15,4 C 22,8 C 6,4 km/h (2 Bft)
08.06.2023 17:23 22,9 C 24,4 C 63 % 1012,6 hPa 0,0 l/m 5,8 km/h (2 Bft) N-NO 23 1 min 0,000 mm 2,1 UV-I 455 W/m 15,5 C 22,9 C 11,3 km/h (2 Bft)
08.06.2023 17:22 22,9 C 24,4 C 63 % 1012,6 hPa 0,0 l/m 8,6 km/h (2 Bft) NO 44 1 min 0,000 mm 2,1 UV-I 401 W/m 15,5 C 22,9 C 11,3 km/h (2 Bft)
08.06.2023 17:21 22,8 C 24,4 C 64 % 1012,6 hPa 0,0 l/m 7,1 km/h (2 Bft) N-NO 30 1 min 0,000 mm 2,1 UV-I 429 W/m 15,6 C 22,8 C 9,7 km/h (2 Bft)
08.06.2023 17:20 22,8 C 24,4 C 63 % 1012,6 hPa 0,0 l/m 8,0 km/h (2 Bft) NO 49 1 min 0,000 mm 2,1 UV-I 420 W/m 15,4 C 22,8 C 9,7 km/h (2 Bft)
08.06.2023 17:19 22,8 C 24,4 C 64 % 1012,6 hPa 0,0 l/m 8,7 km/h (2 Bft) N-NO 14 1 min 0,000 mm 2,2 UV-I 522 W/m 15,6 C 22,8 C 11,3 km/h (2 Bft)
08.06.2023 17:18 22,8 C 24,4 C 64 % 1012,6 hPa 0,0 l/m 9,7 km/h (2 Bft) N-NO 13 1 min 0,000 mm 2,3 UV-I 534 W/m 15,6 C 22,8 C 12,9 km/h (3 Bft)
08.06.2023 17:17 22,7 C 24,4 C 64 % 1012,6 hPa 0,0 l/m 8,7 km/h (2 Bft) O-NO 62 1 min 0,000 mm 2,3 UV-I 538 W/m 15,5 C 22,7 C 12,9 km/h (3 Bft)
08.06.2023 17:16 22,7 C 24,4 C 63 % 1012,6 hPa 0,0 l/m 8,4 km/h (2 Bft) NO 38 1 min 0,000 mm 2,3 UV-I 555 W/m 15,3 C 22,7 C 12,9 km/h (3 Bft)
08.06.2023 17:15 22,7 C 24,4 C 65 % 1012,6 hPa 0,0 l/m 7,3 km/h (2 Bft) NO 34 1 min 0,000 mm 2,3 UV-I 564 W/m 15,8 C 22,7 C 11,3 km/h (2 Bft)
08.06.2023 17:14 22,7 C 24,4 C 65 % 1012,6 hPa 0,0 l/m 6,4 km/h (2 Bft) NO 48 1 min 0,000 mm 2,0 UV-I 571 W/m 15,8 C 22,7 C 9,7 km/h (2 Bft)
08.06.2023 17:13 22,7 C 24,4 C 65 % 1012,5 hPa 0,0 l/m 4,8 km/h (1 Bft) NO 45 1 min 0,000 mm 2,2 UV-I 571 W/m 15,8 C 22,7 C 6,4 km/h (2 Bft)
08.06.2023 17:12 22,7 C 24,4 C 64 % 1012,6 hPa 0,0 l/m 2,6 km/h (1 Bft) N-NO 29 1 min 0,000 mm 2,3 UV-I 585 W/m 15,5 C 22,7 C 6,4 km/h (2 Bft)
08.06.2023 17:11 22,6 C 23,9 C 64 % 1012,6 hPa 0,0 l/m 4,2 km/h (1 Bft) NO 45 1 min 0,000 mm 2,3 UV-I 561 W/m 15,4 C 22,6 C 8,0 km/h (2 Bft)
08.06.2023 17:10 22,6 C 23,9 C 64 % 1012,6 hPa 0,0 l/m 5,9 km/h (2 Bft) N-NO 28 1 min 0,000 mm 2,3 UV-I 489 W/m 15,4 C 22,6 C 8,0 km/h (2 Bft)
08.06.2023 17:09 22,6 C 23,9 C 64 % 1012,6 hPa 0,0 l/m 7,0 km/h (2 Bft) NO 46 1 min 0,000 mm 2,2 UV-I 520 W/m 15,4 C 22,6 C 9,7 km/h (2 Bft)
08.06.2023 17:08 22,6 C 23,9 C 63 % 1012,6 hPa 0,0 l/m 4,8 km/h (1 Bft) O 80 1 min 0,000 mm 2,0 UV-I 527 W/m 15,2 C 22,6 C 8,0 km/h (2 Bft)
08.06.2023 17:07 22,6 C 23,9 C 64 % 1012,5 hPa 0,0 l/m 8,4 km/h (2 Bft) N-NO 15 1 min 0,000 mm 2,2 UV-I 527 W/m 15,4 C 22,6 C 11,3 km/h (2 Bft)
08.06.2023 17:06 22,6 C 23,9 C 63 % 1012,6 hPa 0,0 l/m 7,8 km/h (2 Bft) O-NO 61 1 min 0,000 mm 2,1 UV-I 524 W/m 15,2 C 22,6 C 11,3 km/h (2 Bft)
08.06.2023 17:05 22,6 C 23,9 C 65 % 1012,5 hPa 0,0 l/m 11,5 km/h (2 Bft) N-NO 19 1 min 0,000 mm 2,1 UV-I 490 W/m 15,7 C 22,6 C 16,1 km/h (3 Bft)
08.06.2023 17:04 22,6 C 23,9 C 65 % 1012,5 hPa 0,0 l/m 8,5 km/h (2 Bft) NO 47 1 min 0,000 mm 2,0 UV-I 427 W/m 15,7 C 22,6 C 14,5 km/h (3 Bft)
08.06.2023 17:03 22,6 C 23,9 C 66 % 1012,5 hPa 0,0 l/m 9,3 km/h (2 Bft) N 5 1 min 0,000 mm 2,0 UV-I 394 W/m 15,9 C 22,6 C 14,5 km/h (3 Bft)
08.06.2023 17:02 22,6 C 23,9 C 66 % 1012,5 hPa 0,0 l/m 5,7 km/h (2 Bft) N-NO 20 1 min 0,000 mm 2,1 UV-I 454 W/m 15,9 C 22,6 C 8,0 km/h (2 Bft)
08.06.2023 17:01 22,5 C 23,9 C 66 % 1012,5 hPa 0,0 l/m 6,5 km/h (2 Bft) O-NO 58 1 min 0,381 mm 2,1 UV-I 438 W/m 15,8 C 22,5 C 9,7 km/h (2 Bft)
08.06.2023 17:00 22,5 C 23,9 C 65 % 1012,4 hPa 0,0 l/m 7,1 km/h (2 Bft) N-NO 25 1 min 0,000 mm 2,1 UV-I 448 W/m 15,6 C 22,5 C 11,3 km/h (2 Bft)
08.06.2023 16:59 22,4 C 23,9 C 65 % 1012,4 hPa 0,0 l/m 8,7 km/h (2 Bft) NO 55 1 min 0,000 mm 2,2 UV-I 471 W/m 15,5 C 22,4 C 11,3 km/h (2 Bft)
08.06.2023 16:58 22,4 C 23,9 C 65 % 1012,4 hPa 0,0 l/m 8,4 km/h (2 Bft) NO 47 1 min 0,000 mm 2,2 UV-I 454 W/m 15,5 C 22,4 C 12,9 km/h (3 Bft)
08.06.2023 16:57 22,4 C 23,9 C 66 % 1012,3 hPa 0,0 l/m 6,8 km/h (2 Bft) N-NO 32 1 min 0,000 mm 2,4 UV-I 605 W/m 15,7 C 22,4 C 11,3 km/h (2 Bft)
08.06.2023 16:56 22,4 C 23,9 C 67 % 1012,3 hPa 0,0 l/m 9,0 km/h (2 Bft) NO 46 1 min 0,000 mm 2,4 UV-I 605 W/m 16,0 C 22,4 C 12,9 km/h (3 Bft)
08.06.2023 16:55 22,3 C 23,3 C 69 % 1012,3 hPa 0,0 l/m 5,4 km/h (2 Bft) N 9 1 min 0,000 mm 2,5 UV-I 603 W/m 16,3 C 22,3 C 8,0 km/h (2 Bft)
08.06.2023 16:54 22,2 C 23,3 C 68 % 1012,4 hPa 0,0 l/m 7,8 km/h (2 Bft) NO 40 1 min 0,000 mm 2,5 UV-I 613 W/m 16,0 C 22,2 C 11,3 km/h (2 Bft)
08.06.2023 16:53 22,2 C 23,3 C 67 % 1012,4 hPa 0,0 l/m 6,0 km/h (2 Bft) NO 47 1 min 0,000 mm 2,5 UV-I 605 W/m 15,8 C 22,2 C 11,3 km/h (2 Bft)
08.06.2023 16:52 22,2 C 23,3 C 68 % 1012,4 hPa 0,0 l/m 3,5 km/h (1 Bft) NO 42 1 min 0,000 mm 2,6 UV-I 624 W/m 16,0 C 22,2 C 6,4 km/h (2 Bft)
08.06.2023 16:51 22,1 C 23,3 C 67 % 1012,4 hPa 0,0 l/m 5,5 km/h (2 Bft) NO 42 1 min 0,000 mm 2,5 UV-I 584 W/m 15,7 C 22,1 C 8,0 km/h (2 Bft)
08.06.2023 16:50 22,1 C 23,3 C 67 % 1012,4 hPa 0,0 l/m 5,4 km/h (2 Bft) NO 51 1 min 0,000 mm 2,4 UV-I 582 W/m 15,7 C 22,1 C 8,0 km/h (2 Bft)
08.06.2023 16:49 22,1 C 23,3 C 66 % 1012,4 hPa 0,0 l/m 3,3 km/h (1 Bft) N 5 1 min 0,000 mm 2,4 UV-I 585 W/m 15,4 C 22,1 C 4,8 km/h (1 Bft)
08.06.2023 16:48 22,1 C 23,3 C 65 % 1012,4 hPa 0,0 l/m 4,8 km/h (1 Bft) NO 46 1 min 0,000 mm 2,5 UV-I 357 W/m 15,2 C 22,1 C 8,0 km/h (2 Bft)
08.06.2023 16:47 22,1 C 23,3 C 65 % 1012,4 hPa 0,0 l/m 8,7 km/h (2 Bft) N-NO 17 1 min 0,000 mm 2,2 UV-I 357 W/m 15,2 C 22,1 C 11,3 km/h (2 Bft)
08.06.2023 16:46 22,1 C 23,3 C 66 % 1012,4 hPa 0,0 l/m 9,4 km/h (2 Bft) N-NO 22 0 min 0,000 mm 2,0 UV-I 343 W/m 15,4 C 22,1 C 11,3 km/h (2 Bft)
08.06.2023 16:45 22,1 C 23,3 C 66 % 1012,4 hPa 0,0 l/m 8,2 km/h (2 Bft) N-NO 22 0 min 0,000 mm 1,9 UV-I 330 W/m 15,4 C 22,1 C 12,9 km/h (3 Bft)
08.06.2023 16:44 22,1 C 23,3 C 66 % 1012,4 hPa 0,0 l/m 5,8 km/h (2 Bft) N-NO 26 0 min 0,000 mm 1,9 UV-I 327 W/m 15,4 C 22,1 C 8,0 km/h (2 Bft)
08.06.2023 16:43 22,2 C 23,9 C 66 % 1012,4 hPa 0,0 l/m 5,5 km/h (2 Bft) O-NO 63 0 min 0,000 mm 1,9 UV-I 329 W/m 15,5 C 22,2 C 9,7 km/h (2 Bft)
08.06.2023 16:42 22,2 C 23,9 C 64 % 1012,4 hPa 0,0 l/m 9,9 km/h (2 Bft) N 5 1 min 0,000 mm 1,9 UV-I 461 W/m 15,1 C 22,2 C 14,5 km/h (3 Bft)
08.06.2023 16:41 22,2 C 23,9 C 65 % 1012,4 hPa 0,0 l/m 8,3 km/h (2 Bft) N-NW 329 1 min 0,000 mm 1,9 UV-I 461 W/m 15,3 C 22,2 C 11,3 km/h (2 Bft)
08.06.2023 16:40 22,3 C 23,9 C 64 % 1012,4 hPa 0,0 l/m 11,4 km/h (2 Bft) N 5 1 min 0,000 mm 2,2 UV-I 455 W/m 15,2 C 22,3 C 14,5 km/h (3 Bft)
08.06.2023 16:39 22,3 C 23,9 C 65 % 1012,4 hPa 0,0 l/m 10,3 km/h (2 Bft) N-NW 337 1 min 0,000 mm 1,9 UV-I 387 W/m 15,4 C 22,3 C 14,5 km/h (3 Bft)
08.06.2023 16:38 22,3 C 23,9 C 63 % 1012,4 hPa 0,0 l/m 5,5 km/h (2 Bft) N-NW 335 0 min 0,000 mm 2,0 UV-I 357 W/m 14,9 C 22,3 C 8,0 km/h (2 Bft)
08.06.2023 16:37 22,3 C 23,9 C 64 % 1012,4 hPa 0,0 l/m 8,9 km/h (2 Bft) N 11 1 min 0,000 mm 2,1 UV-I 399 W/m 15,2 C 22,3 C 14,5 km/h (3 Bft)
08.06.2023 16:36 22,4 C 23,9 C 62 % 1012,4 hPa 0,0 l/m 8,7 km/h (2 Bft) N 5 1 min 0,000 mm 2,2 UV-I 459 W/m 14,8 C 22,4 C 14,5 km/h (3 Bft)
08.06.2023 16:35 22,4 C 24,4 C 62 % 1012,4 hPa 0,0 l/m 7,5 km/h (2 Bft) N 5 1 min 0,000 mm 2,3 UV-I 475 W/m 14,8 C 22,4 C 9,7 km/h (2 Bft)
08.06.2023 16:34 22,4 C 24,4 C 62 % 1012,4 hPa 0,0 l/m 8,5 km/h (2 Bft) N-NW 339 1 min 0,000 mm 2,4 UV-I 485 W/m 14,8 C 22,4 C 12,9 km/h (3 Bft)
08.06.2023 16:33 22,4 C 24,4 C 62 % 1012,4 hPa 0,0 l/m 11,5 km/h (2 Bft) N 355 1 min 0,000 mm 2,5 UV-I 501 W/m 14,8 C 22,4 C 16,1 km/h (3 Bft)
08.06.2023 16:32 22,4 C 23,9 C 62 % 1012,3 hPa 0,0 l/m 13,6 km/h (3 Bft) N-NO 22 1 min 0,000 mm 2,6 UV-I 557 W/m 14,8 C 22,4 C 17,7 km/h (3 Bft)
08.06.2023 16:31 22,4 C 23,9 C 63 % 1012,3 hPa 0,0 l/m 12,2 km/h (2 Bft) N-NO 30 1 min 0,000 mm 2,7 UV-I 589 W/m 15,0 C 22,4 C 16,1 km/h (3 Bft)
08.06.2023 16:30 22,4 C 23,9 C 63 % 1012,3 hPa 0,0 l/m 10,1 km/h (2 Bft) N-NO 20 1 min 0,000 mm 2,8 UV-I 575 W/m 15,0 C 22,4 C 14,5 km/h (3 Bft)
08.06.2023 16:29 22,3 C 23,9 C 64 % 1012,4 hPa 0,0 l/m 6,1 km/h (2 Bft) O-NO 59 1 min 0,000 mm 3,0 UV-I 621 W/m 15,2 C 22,3 C 11,3 km/h (2 Bft)
08.06.2023 16:28 22,3 C 23,9 C 65 % 1012,4 hPa 0,0 l/m 7,7 km/h (2 Bft) N 9 1 min 0,000 mm 3,0 UV-I 591 W/m 15,4 C 22,3 C 12,9 km/h (3 Bft)
08.06.2023 16:27 22,3 C 23,9 C 63 % 1012,4 hPa 0,0 l/m 6,8 km/h (2 Bft) N 350 1 min 0,000 mm 3,0 UV-I 598 W/m 14,9 C 22,3 C 9,7 km/h (2 Bft)
08.06.2023 16:26 22,3 C 23,9 C 63 % 1012,4 hPa 0,0 l/m 6,0 km/h (2 Bft) N-NW 346 1 min 0,000 mm 3,0 UV-I 635 W/m 14,9 C 22,3 C 9,7 km/h (2 Bft)
08.06.2023 16:25 22,3 C 23,9 C 64 % 1012,4 hPa 0,0 l/m 8,0 km/h (2 Bft) N-NO 29 1 min 0,000 mm 3,1 UV-I 640 W/m 15,2 C 22,3 C 12,9 km/h (3 Bft)
08.06.2023 16:24 22,2 C 23,9 C 62 % 1012,5 hPa 0,0 l/m 8,0 km/h (2 Bft) NO 35 1 min 0,000 mm 3,1 UV-I 687 W/m 14,6 C 22,2 C 12,9 km/h (3 Bft)
08.06.2023 16:23 22,2 C 23,9 C 62 % 1012,5 hPa 0,0 l/m 9,4 km/h (2 Bft) N-NO 13 1 min 0,000 mm 3,1 UV-I 659 W/m 14,6 C 22,2 C 12,9 km/h (3 Bft)
08.06.2023 16:22 22,3 C 23,9 C 62 % 1012,5 hPa 0,0 l/m 8,2 km/h (2 Bft) N-NO 32 1 min 0,000 mm 3,0 UV-I 629 W/m 14,7 C 22,3 C 11,3 km/h (2 Bft)
08.06.2023 16:21 22,3 C 23,9 C 61 % 1012,5 hPa 0,0 l/m 9,7 km/h (2 Bft) N-NO 19 1 min 0,000 mm 2,8 UV-I 587 W/m 14,4 C 22,3 C 14,5 km/h (3 Bft)
08.06.2023 16:20 22,3 C 23,9 C 62 % 1012,5 hPa 0,0 l/m 8,4 km/h (2 Bft) N-NO 17 1 min 0,000 mm 2,8 UV-I 510 W/m 14,7 C 22,3 C 12,9 km/h (3 Bft)
08.06.2023 16:19 22,3 C 23,9 C 61 % 1012,5 hPa 0,0 l/m 6,8 km/h (2 Bft) NO 38 1 min 0,000 mm 2,8 UV-I 540 W/m 14,4 C 22,3 C 12,9 km/h (3 Bft)
08.06.2023 16:18 22,3 C 23,9 C 60 % 1012,5 hPa 0,0 l/m 8,4 km/h (2 Bft) NO 51 1 min 0,000 mm 2,9 UV-I 563 W/m 14,2 C 22,3 C 11,3 km/h (2 Bft)
08.06.2023 16:17 22,3 C 24,4 C 61 % 1012,5 hPa 0,0 l/m 9,3 km/h (2 Bft) N-NO 27 1 min 0,000 mm 2,9 UV-I 517 W/m 14,4 C 22,3 C 12,9 km/h (3 Bft)
08.06.2023 16:16 22,3 C 24,4 C 63 % 1012,6 hPa 0,0 l/m 9,7 km/h (2 Bft) N-NO 30 1 min 0,000 mm 3,0 UV-I 520 W/m 14,9 C 22,3 C 16,1 km/h (3 Bft)
08.06.2023 16:15 22,3 C 24,4 C 63 % 1012,6 hPa 0,0 l/m 7,2 km/h (2 Bft) O-NO 59 1 min 0,000 mm 3,0 UV-I 527 W/m 14,9 C 22,3 C 11,3 km/h (2 Bft)
08.06.2023 16:14 22,3 C 24,4 C 64 % 1012,5 hPa 0,0 l/m 7,6 km/h (2 Bft) N-NO 32 1 min 0,000 mm 3,1 UV-I 563 W/m 15,2 C 22,3 C 11,3 km/h (2 Bft)
08.06.2023 16:13 22,2 C 24,4 C 62 % 1012,6 hPa 0,0 l/m 10,5 km/h (2 Bft) NO 42 1 min 0,000 mm 3,3 UV-I 596 W/m 14,6 C 22,2 C 16,1 km/h (3 Bft)
08.06.2023 16:12 22,2 C 24,4 C 63 % 1012,5 hPa 0,0 l/m 11,5 km/h (2 Bft) N-NO 23 1 min 0,000 mm 3,2 UV-I 817 W/m 14,8 C 22,2 C 14,5 km/h (3 Bft)
08.06.2023 16:11 22,2 C 24,4 C 63 % 1012,5 hPa 0,0 l/m 9,3 km/h (2 Bft) N-NO 26 1 min 0,000 mm 3,7 UV-I 817 W/m 14,8 C 22,2 C 12,9 km/h (3 Bft)
08.06.2023 16:10 22,1 C 24,4 C 63 % 1012,5 hPa 0,0 l/m 14,8 km/h (3 Bft) N 5 1 min 0,000 mm 4,0 UV-I 846 W/m 14,7 C 22,1 C 17,7 km/h (3 Bft)
08.06.2023 16:09 22,1 C 24,4 C 64 % 1012,5 hPa 0,0 l/m 11,0 km/h (2 Bft) N-NO 19 1 min 0,000 mm 4,0 UV-I 863 W/m 15,0 C 22,1 C 16,1 km/h (3 Bft)
08.06.2023 16:08 22,0 C 23,9 C 64 % 1012,5 hPa 0,0 l/m 10,6 km/h (2 Bft) NO 36 1 min 0,000 mm 4,0 UV-I 844 W/m 14,9 C 22,0 C 16,1 km/h (3 Bft)
08.06.2023 16:07 21,9 C 23,9 C 65 % 1012,4 hPa 0,0 l/m 11,5 km/h (2 Bft) NO 40 1 min 0,000 mm 4,1 UV-I 844 W/m 15,0 C 21,9 C 14,5 km/h (3 Bft)
08.06.2023 16:06 21,8 C 23,9 C 68 % 1012,5 hPa 0,0 l/m 9,4 km/h (2 Bft) N-NO 16 1 min 0,000 mm 4,1 UV-I 847 W/m 15,6 C 21,8 C 12,9 km/h (3 Bft)
08.06.2023 16:05 21,7 C 23,9 C 70 % 1012,5 hPa 0,0 l/m 8,7 km/h (2 Bft) N-NO 21 1 min 0,000 mm 4,3 UV-I 881 W/m 16,0 C 21,7 C 12,9 km/h (3 Bft)
08.06.2023 16:04 21,6 C 23,9 C 70 % 1012,4 hPa 0,0 l/m 6,8 km/h (2 Bft) N-NO 19 1 min 0,000 mm 4,3 UV-I 893 W/m 15,9 C 21,6 C 8,0 km/h (2 Bft)
08.06.2023 16:03 21,5 C 23,3 C 71 % 1012,5 hPa 0,0 l/m 5,5 km/h (2 Bft) N 5 1 min 0,000 mm 4,4 UV-I 896 W/m 16,0 C 21,5 C 9,7 km/h (2 Bft)
08.06.2023 16:02 21,3 C 23,3 C 70 % 1012,5 hPa 0,0 l/m 8,4 km/h (2 Bft) N-NO 30 1 min 0,000 mm 4,3 UV-I 863 W/m 15,6 C 21,3 C 11,3 km/h (2 Bft)
08.06.2023 16:01 21,3 C 23,3 C 69 % 1012,5 hPa 0,0 l/m 8,5 km/h (2 Bft) N 5 1 min 0,000 mm 4,3 UV-I 888 W/m 15,4 C 21,3 C 11,3 km/h (2 Bft)
_ Min-Zeit 02:26 03:12 19:19 16:30 - 11:54 - - - - - - 03:10 02:26 08:06
Minimum _ 13,7 C 11,1 C 53 % 1012,3 hPa - 0,1 km/h (0 Bft) - - - - - - 10,5 C 13,7 C 1,6 km/h (1 Bft)
_ Max-Zeit 12:13 12:08 15:24 22:20 12:53 12:52 - - 18:11 12:01 11:34 12:08 16:55 12:13 12:52
Maximum _ 24,6 C 28,9 C 89 % 1015,0 hPa 0,4 l/m 24,9 km/h
NW (4 Bft)
- - 1 min 0,533 mm 6,0 UV-I 1037 W/m 16,3 C 24,6 C 33,8 km/h
N-NW (5 Bft)
Durchschnitt _ 18,6 C 18,3 C 70 % 1014,1 hPa #1,4 l/m 7,0 km/h (2 Bft) N-NW - #7:37 h #3,073 mm 2,6 UV-I 382 W/m 12,9 C 18,6 C 9,5 km/h (2 Bft)
Wetterstation Eggerszell